This demonstration page uses our WeatherBlox Daily Observations layout. Learn more.

Left ArrowRight Arrow

Hourly Observations for May 31, 2023

Temp ( °F °C ) Dew Point ( °F °C ) Humidity (%) Winds ( mph kmh ) Pressure ( in mb ) Visibility ( mi km ) Precip ( " mm )
12:15 am 00:15 Clear 67 19.6 66 18.9 96 96 Calm 30.00 1016 10 16 0.00 0.00
12:35 am 00:35 Clear 66 19.1 65 18.6 97 97 Calm 30.01 1016 10 16 0.00 0.00
12:55 am 00:55 Clear 66 18.9 65 18.2 96 96 Calm 30.01 1016 10 16 0.00 0.00
1:15 am 01:15 Clear 65 18.6 65 18.3 98 98 Calm 30.01 1016 10 16 0.00 0.00
1:35 am 01:35 Clear 65 18.3 64 18 98 98 Calm 30.00 1016 7 11 0.00 0.00
1:55 am 01:55 Clear 64 18 63 17.3 96 96 Calm 30.00 1016 10 16 0.00 0.00
2:15 am 02:15 Clear 64 17.7 63 17.2 97 97 Calm 30.00 1016 10 16 0.00 0.00
2:35 am 02:35 Clear 64 17.7 63 17.3 98 98 Calm 30.00 1016 10 16 0.00 0.00
2:55 am 02:55 Clear 64 17.6 63 17.2 98 98 Calm 30.01 1016 10 16 0.00 0.00
3:15 am 03:15 Clear 64 17.5 63 17 97 97 Calm 30.01 1016 10 16 0.00 0.00
3:35 am 03:35 Clear 63 17.3 62 16.8 97 97 Calm 30.01 1016 10 16 0.00 0.00
3:55 am 03:55 Clear 64 17.7 62 16.7 94 94 ESE 3 6 30.00 1016 10 16 0.00 0.00
4:15 am 04:15 Clear 65 18.3 61 16.3 88 88 ESE 6 9 29.99 1016 10 16 0.00 0.00
4:35 am 04:35 Clear 64 18 61 16.3 90 90 ESE 3 6 30.00 1016 10 16 0.00 0.00
4:55 am 04:55 Clear 64 17.9 61 16.1 89 89 Calm 30.00 1016 10 16 0.00 0.00
5:15 am 05:15 Clear 64 18 61 16 88 88 Calm 30.01 1016 10 16 0.00 0.00
5:35 am 05:35 Clear 63 17.3 60 15.8 91 91 Calm 30.02 1016 10 16 0.00 0.00
5:55 am 05:55 Clear 63 17.1 61 15.9 93 93 Calm 30.02 1016 10 16 0.00 0.00
6:15 am 06:15 Clear 62 16.9 60 15.8 93 93 Calm 30.03 1017 10 16 0.00 0.00
6:35 am 06:35 Sunny 63 17.2 60 15.6 90 90 Calm 30.03 1017 10 16 0.00 0.00
6:55 am 06:55 Sunny 64 17.5 60 15.7 89 89 Calm 30.04 1017 10 16 0.00 0.00
7:15 am 07:15 Sunny 64 17.5 61 16 91 91 Calm 30.04 1017 10 16 0.00 0.00
7:35 am 07:35 Sunny 66 18.7 62 16.5 87 87 E 3 6 30.04 1017 10 16 0.00 0.00
7:55 am 07:55 Sunny 67 19.5 62 16.6 83 83 Calm 30.05 1018 10 16 0.00 0.00
8:15 am 08:15 Sunny 69 20.3 62 16.9 81 81 Calm 30.05 1017 10 16 0.00 0.00
8:35 am 08:35 Sunny 70 21 63 17 78 78 SE 3 6 30.05 1018 10 16 0.00 0.00
8:55 am 08:55 Sunny 71 21.9 64 17.8 78 78 SE 5 7 30.05 1018 10 16 0.00 0.00
9:15 am 09:15 Sunny 72 22.1 63 17.3 74 74 SE 6 9 30.05 1018 10 16 0.00 0.00
9:35 am 09:35 Sunny 73 23 64 17.8 73 73 SE 6 9 30.05 1017 10 16 0.00 0.00
9:55 am 09:55 Sunny 74 23.5 64 17.9 71 71 SE 5 7 30.04 1017 10 16 0.00 0.00
10:15 am 10:15 Sunny 75 24.1 64 17.9 68 68 SE 7 11 30.04 1017 10 16 0.00 0.00
10:35 am 10:35 Sunny 77 24.8 65 18.1 66 66 S 6 9 30.04 1017 10 16 0.00 0.00
10:55 am 10:55 Sunny 78 25.5 65 18.4 65 65 S 6 9 30.04 1017 10 16 0.00 0.00
11:15 am 11:15 Sunny 79 26 65 18.1 62 62 S 6 9 30.04 1017 10 16 0.00 0.00
11:35 am 11:35 Sunny 80 26.4 64 17.8 59 59 SSE 8 13 30.04 1017 10 16 0.00 0.00
11:55 am 11:55 Sunny 81 27.1 64 17.5 56 56 SE 9 15 30.03 1017 10 16 0.00 0.00
12:15 pm 12:15 Partly Cloudy 81 27.3 62 16.8 53 53 SE 8 13 30.02 1017 10 16 0.00 0.00
12:35 pm 12:35 Partly Cloudy 82 27.7 62 16.7 51 51 SSE 7 11 30.02 1017 10 16 0.00 0.00
12:55 pm 12:55 Partly Cloudy 82 28 62 16.4 49 49 S 9 15 30.02 1017 10 16 0.00 0.00
1:15 pm 13:15 Mostly Cloudy 82 27.8 61 16 49 49 S 6 9 30.02 1017 10 16 0.00 0.00
1:35 pm 13:35 Mostly Cloudy 83 28.6 61 16 46 46 SSE 8 13 30.01 1016 10 16 0.00 0.00
1:55 pm 13:55 Partly Cloudy 83 28.5 60 15.7 46 46 SE 3 6 30.01 1016 10 16 0.00 0.00
2:15 pm 14:15 Sunny 84 28.8 60 15.5 44 44 SSE 3 6 30.00 1016 10 16 0.00 0.00
2:35 pm 14:35 Sunny 83 28.6 59 14.9 43 43 SE 3 6 29.99 1016 10 16 0.00 0.00
2:55 pm 14:55 Partly Cloudy 85 29.2 58 14.7 41 41 S 7 11 29.98 1015 10 16 0.00 0.00
3:15 pm 15:15 Sunny 86 29.8 59 15.1 41 41 SSE 9 15 29.97 1015 10 16 0.00 0.00
3:35 pm 15:35 Sunny 85 29.5 59 14.9 41 41 S 7 11 29.98 1015 10 16 0.00 0.00
3:55 pm 15:55 Sunny 85 29.7 59 15.2 41 41 SSW 8 13 29.97 1015 10 16 0.00 0.00
4:15 pm 16:15 Partly Cloudy 86 30.2 60 15.3 41 41 SE 9 15 29.96 1015 10 16 0.00 0.00
4:35 pm 16:35 Sunny 86 30 59 14.9 40 40 SSE 9 15 29.95 1014 10 16 0.00 0.00
4:55 pm 16:55 Sunny 86 30.1 59 15.1 40 40 SSE 9 15 29.94 1014 10 16 0.00 0.00
5:15 pm 17:15 Sunny 84 28.9 59 15 43 43 SSE 10 17 29.96 1014 10 16 0.00 0.00
5:35 pm 17:35 Sunny 83 28.1 60 15.4 46 46 S 12 19 29.97 1015 10 16 0.00 0.00
5:55 pm 17:55 Sunny 80 26.7 61 15.9 52 52 S 10 17 29.96 1015 10 16 0.00 0.00
6:15 pm 18:15 Sunny 80 26.5 60 15.6 51 51 S 13 20 29.98 1015 10 16 0.00 0.00
6:35 pm 18:35 Sunny 79 26.1 61 16 54 54 S 12 19 29.98 1015 10 16 0.00 0.00
6:55 pm 18:55 Sunny 78 25.6 60 15.7 54 54 S 10 17 29.97 1015 10 16 0.00 0.00
7:15 pm 19:15 Sunny 78 25.6 61 16 55 55 SSE 7 11 29.98 1015 10 16 0.00 0.00
7:35 pm 19:35 Sunny 78 25.6 60 15.5 54 54 SSE 6 9 29.98 1015 10 16 0.00 0.00
7:55 pm 19:55 Sunny 78 25.3 59 15.1 53 53 S 6 9 29.98 1015 10 16 0.00 0.00
8:15 pm 20:15 Partly Cloudy 76 24.7 59 14.8 54 54 S 7 11 29.98 1015 10 16 0.00 0.00
8:35 pm 20:35 Partly Cloudy 76 24.5 59 15.2 56 56 SSE 3 6 29.98 1015 10 16 0.00 0.00
8:55 pm 20:55 Sunny 74 23.3 62 16.6 66 66 Calm 29.97 1015 10 16 0.00 0.00
9:15 pm 21:15 Clear 72 22.2 63 17.2 73 73 SE 3 6 29.99 1016 10 16 0.00 0.00
9:35 pm 21:35 Partly Cloudy 72 22 61 16.3 70 70 Calm 30.00 1016 10 16 0.00 0.00
9:55 pm 21:55 Clear 72 22 60 15.6 67 67 Calm 30.00 1016 10 16 0.00 0.00
10:15 pm 22:15 Clear 69 20.5 61 16.3 77 77 Calm 30.02 1016 10 16 0.00 0.00
10:35 pm 22:35 Clear 69 20.3 64 17.5 84 84 Calm 30.02 1016 10 16 0.00 0.00
10:55 pm 22:55 Clear 68 20 64 17.5 86 86 Calm 30.03 1017 10 16 0.00 0.00
11:15 pm 23:15 Clear 68 20 63 17.3 84 84 Calm 30.03 1017 10 16 0.00 0.00
11:35 pm 23:35 Clear 67 19.3 64 17.5 89 89 Calm 30.03 1017 10 16 0.00 0.00
11:55 pm 23:55 Clear 66 19.1 61 16.2 83 83 Calm 30.04 1017 10 16 0.00 0.00

Powered by Vaisala Xweather